Miscellaneous Local Product
Issued by NWS Hastings, NE

Home | Current Version | Previous Version | Text Only | Print | Product List | Glossary On
Versions: 1 2 3 4 5 6 7 8 9 10 11 12 13 14 15 16 17 18 19 20 21 22 23 24 25 26 27 28 29 30 31 32 33 34 35 36 37 38 39 40 41 42 43 44 45 46 47 48 49 50
000
AXUS43 KGID 240302
MISGRI

GID CWA HOURLY WEATHER ROUNDUP
NATIONAL WEATHER SERVICE HASTINGS NE
1000 PM CDT SAT JUL 23 2016

NOTE: "FAIR" INDICATES FEW OR NO CLOUDS BELOW 12,000 FEET WITH NO
SIGNIFICANT WEATHER AND/OR OBSTRUCTIONS TO VISIBILITY.

...SOUTH CENTRAL NEBRASKA...

CITY           SKY/WX    TMP DP  RH WIND       PRES   REMARKS
GRAND ISLAND   CLEAR     82  74  76 CALM      29.84R
HASTINGS       CLEAR     83  75  77 E3        29.85R HX  90
KEARNEY        CLEAR     82  72  69 N5        29.87R
ORD            CLEAR     79  73  82 CALM      29.84R
YORK           CLEAR     84  75  74 S6        29.83R HX  92
AURORA         CLEAR     84  80  88 CALM      29.83R HX  97
LEXINGTON      CLEAR     79  76  90 N6        29.88R
HOLDREGE       CLEAR     78  73  84 N7        29.86R
HEBRON         PTCLDY    84  71  63 S10       29.80R

...NEBRASKA PANHANDLE...

CITY           SKY/WX    TMP DP  RH WIND       PRES   REMARKS
CHADRON        PTCLDY    75  47  36 E8        29.99R
ALLIANCE       CLEAR     71  59  65 E6        30.01R
SCOTTSBLUFF    CLOUDY    75  57  53 E5        29.99R
SIDNEY         CLOUDY    72  56  57 S8        30.02S

...WESTERN AND NORTH CENTRAL NEBRASKA...

CITY           SKY/WX    TMP DP  RH WIND       PRES   REMARKS
VALENTINE      CLEAR     78  53  41 N7        29.95R
AINSWORTH      CLEAR     73  59  61 N7        29.94R
ONEILL         CLEAR     81  65  58 NW12      29.85R
BROKEN BOW     CLEAR     74  69  85 N9        29.90R
IMPERIAL       CLEAR     83  61  47 N9        29.95S
NORTH PLATTE   CLEAR     77  68  73 NE3       29.91R
MCCOOK         CLEAR     79  69  71 N7        29.89R

...EASTERN NEBRASKA...

CITY           SKY/WX    TMP DP  RH WIND       PRES   REMARKS
NORFOLK        CLEAR     81  75  82 CALM      29.79R
SO SIOUX CITY  CLEAR     83  77  82 S5        29.77R HX  92
TEKAMAH        PTCLDY    81  77  88 S5        29.78R
COLUMBUS       CLEAR     82  72  69 CALM      29.81R
ALBION         CLEAR     80  74  79 SE3       29.83R
OMAHA EPPLEY   CLOUDY    86  76  71 S14       29.78R HX  96
OFFUTT AFB     CLOUDY    83  77  82 SE8       29.79R HX  92
MILLARD        CLOUDY    84  78  82 SE3       29.79R HX  96
LINCOLN        CLOUDY    84  72  67 S5        29.80R
NEBRASKA CITY  CLOUDY    80  76  87 S8        29.82R
BEATRICE       CLOUDY    86  70  59 S10       29.81R HX  91
FALLS CITY     CLOUDY    85  74  69 S10       29.82R HX  92

...NORTHERN KANSAS...

CITY           SKY/WX    TMP DP  RH WIND       PRES   REMARKS
GOODLAND       CLOUDY    74  59  59 E7        29.94R
HILL CITY      CLOUDY    87  69  54 NE9       29.84R HX  91
NORTON         CLEAR     81  64  57 NE5       29.86R
SMITH CENTER   CLEAR     82  68  61 N5        29.82R
BELOIT         CLEAR     86  66  51 SE10      29.79R
HAYS           CLEAR     84  57  39 S7        29.83R
RUSSELL        CLEAR     87  62  43 S13       29.80R
CONCORDIA      CLEAR     87  68  52 S17G25    29.80R HX  90
SALINA         CLEAR     89  69  51 SE14      29.81R HX  93
TOPEKA         CLOUDY    87  70  56 S7        29.85R HX  92



USA.gov is the U.S. government's official web portal to all federal, state and local government web resources and services.